• In Österreich
  • Länderverzeichnis
  • Für 7 Tage
  • Wassertemperatur
  • Satellitenkarten
  • Wetterkarte
  • News
  • Widgets
  • user-avatar
    Anmelden

    Stündliche Wetter Sydney

    Heute, 25 Mai, Freitag

    Zeit Temperatur Niederschläge Wind Luftdruck Luftfeuchtigkeit
    00:00 +15°C° 0 mm 4 m/S 768 mmHg 83%
    01:00 +15°C° 0 mm 4 m/S 768 mmHg 82%
    02:00 +15°C° 0 mm 5 m/S 768 mmHg 82%
    03:00 +15°C° 0 mm 5 m/S 769 mmHg 82%
    04:00 +14°C° 0 mm 5 m/S 769 mmHg 82%
    05:00 +14°C° 0 mm 5 m/S 769 mmHg 83%
    06:00 +14°C° 0 mm 5 m/S 769 mmHg 84%
    07:00 +13°C° 0 mm 5 m/S 770 mmHg 85%
    08:00 +15°C° 0 mm 4 m/S 770 mmHg 78%
    09:00 +17°C° 0 mm 4 m/S 770 mmHg 72%
    10:00 +18°C° 0 mm 4 m/S 771 mmHg 65%
    11:00 +19°C° 0 mm 4 m/S 770 mmHg 61%
    12:00 +19°C° 0 mm 4 m/S 770 mmHg 58%
    13:00 +20°C° 0 mm 3 m/S 770 mmHg 54%
    14:00 +19°C° 0 mm 3 m/S 770 mmHg 55%
    15:00 +19°C° 0 mm 3 m/S 770 mmHg 56%
    16:00 +19°C° 0 mm 3 m/S 770 mmHg 58%
    17:00 +17°C° 0 mm 3 m/S 770 mmHg 65%
    18:00 +16°C° 0 mm 2 m/S 770 mmHg 72%
    19:00 +14°C° 0 mm 2 m/S 771 mmHg 79%
    20:00 +14°C° 0 mm 2 m/S 771 mmHg 81%
    21:00 +14°C° 0 mm 2 m/S 771 mmHg 83%
    22:00 +13°C° 0 mm 1 m/S 772 mmHg 85%
    23:00 +13°C° 0 mm 1 m/S 772 mmHg 86%

    Morgen, 26 Mai, Samstag

    Zeit Temperatur Niederschläge Wind Luftdruck Luftfeuchtigkeit
    00:00 +13°C° 0 mm 1 m/S 772 mmHg 88%
    01:00 +12°C° 0 mm 1 m/S 772 mmHg 90%
    02:00 +12°C° 0 mm 1 m/S 771 mmHg 90%
    03:00 +12°C° 0 mm 1 m/S 771 mmHg 91%
    04:00 +11°C° 0 mm 1 m/S 771 mmHg 92%
    05:00 +11°C° 0 mm 1 m/S 772 mmHg 93%
    06:00 +11°C° 0 mm 1 m/S 772 mmHg 94%
    07:00 +10°C° 0 mm 1 m/S 772 mmHg 94%
    08:00 +13°C° 0 mm 1 m/S 772 mmHg 82%
    09:00 +16°C° 0 mm 1 m/S 772 mmHg 70%
    10:00 +19°C° 0 mm 1 m/S 772 mmHg 59%
    11:00 +20°C° 0 mm 1 m/S 772 mmHg 53%
    12:00 +21°C° 0 mm 2 m/S 771 mmHg 48%
    13:00 +23°C° 0 mm 2 m/S 770 mmHg 43%
    14:00 +21°C° 0 mm 2 m/S 770 mmHg 45%
    15:00 +21°C° 0 mm 2 m/S 770 mmHg 47%
    16:00 +20°C° 0 mm 3 m/S 770 mmHg 49%
    17:00 +18°C° 0 mm 3 m/S 770 mmHg 58%
    18:00 +16°C° 0 mm 3 m/S 770 mmHg 67%
    19:00 +14°C° 0 mm 3 m/S 771 mmHg 75%
    20:00 +13°C° 0 mm 3 m/S 771 mmHg 79%
    21:00 +12°C° 0 mm 3 m/S 771 mmHg 83%
    22:00 +13°C° 0 mm 2 m/S 772 mmHg 86%
    23:00 +12°C° 0 mm 2 m/S 771 mmHg 88%

    übermorgen, 27 Mai, Sonntag

    Zeit Temperatur Niederschläge Wind Luftdruck Luftfeuchtigkeit
    00:00 +12°C° 0 mm 2 m/S 771 mmHg 89%
    01:00 +10°C° 0 mm 2 m/S 771 mmHg 91%
    02:00 +10°C° 0 mm 2 m/S 771 mmHg 91%
    03:00 +10°C° 0 mm 2 m/S 771 mmHg 91%
    04:00 +10°C° 0 mm 2 m/S 770 mmHg 91%
    05:00 +9°C° 0 mm 2 m/S 771 mmHg 91%
    06:00 +9°C° 0 mm 2 m/S 771 mmHg 90%
    07:00 +9°C° 0 mm 2 m/S 771 mmHg 89%
    08:00 +13°C° 0 mm 2 m/S 771 mmHg 77%
    09:00 +15°C° 0 mm 2 m/S 771 mmHg 66%
    10:00 +18°C° 0 mm 2 m/S 771 mmHg 54%
    11:00 +19°C° 0 mm 2 m/S 770 mmHg 48%
    12:00 +21°C° 0 mm 2 m/S 770 mmHg 43%
    13:00 +22°C° 0 mm 3 m/S 769 mmHg 37%
    14:00 +21°C° 0 mm 3 m/S 769 mmHg 40%
    15:00 +21°C° 0 mm 3 m/S 769 mmHg 43%
    16:00 +20°C° 0 mm 3 m/S 769 mmHg 46%
    17:00 +19°C° 0 mm 4 m/S 769 mmHg 55%
    18:00 +17°C° 0 mm 4 m/S 769 mmHg 64%
    19:00 +14°C° 0 mm 4 m/S 769 mmHg 73%
    20:00 +14°C° 0 mm 3 m/S 769 mmHg 76%
    21:00 +13°C° 0 mm 3 m/S 769 mmHg 79%
    22:00 +13°C° 0 mm 3 m/S 770 mmHg 82%
    23:00 +13°C° 0 mm 3 m/S 769 mmHg 83%

    28 Mai, Montag

    Zeit Temperatur Niederschläge Wind Luftdruck Luftfeuchtigkeit
    00:00 +12°C° 0 mm 3 m/S 769 mmHg 85%
    01:00 +13°C° 0 mm 2 m/S 769 mmHg 87%
    02:00 +12°C° 0 mm 2 m/S 769 mmHg 87%
    03:00 +12°C° 0 mm 2 m/S 769 mmHg 88%
    04:00 +12°C° 0 mm 2 m/S 768 mmHg 89%
    05:00 +10°C° 0 mm 2 m/S 769 mmHg 88%
    06:00 +10°C° 0 mm 2 m/S 769 mmHg 87%
    07:00 +10°C° 0 mm 2 m/S 769 mmHg 86%
    08:00 +13°C° 0 mm 2 m/S 769 mmHg 77%
    09:00 +15°C° 0 mm 2 m/S 769 mmHg 68%
    10:00 +17°C° 0 mm 2 m/S 769 mmHg 59%
    11:00 +19°C° 0 mm 2 m/S 768 mmHg 53%
    12:00 +20°C° 0 mm 2 m/S 767 mmHg 47%
    13:00 +21°C° 0 mm 2 m/S 766 mmHg 41%
    14:00 +21°C° 0 mm 2 m/S 766 mmHg 42%
    15:00 +21°C° 0 mm 2 m/S 766 mmHg 43%
    16:00 +20°C° 0 mm 2 m/S 766 mmHg 44%
    17:00 +19°C° 0 mm 2 m/S 766 mmHg 51%
    18:00 +17°C° 0 mm 3 m/S 766 mmHg 58%
    19:00 +14°C° 0 mm 3 m/S 767 mmHg 65%
    20:00 +14°C° 0 mm 3 m/S 767 mmHg 67%
    21:00 +13°C° 0 mm 3 m/S 767 mmHg 68%
    22:00 +12°C° 0 mm 3 m/S 767 mmHg 70%
    23:00 +12°C° 0 mm 3 m/S 767 mmHg 68%

    29 Mai, Dienstag

    Zeit Temperatur Niederschläge Wind Luftdruck Luftfeuchtigkeit
    00:00 +11°C° 0 mm 3 m/S 766 mmHg 67%
    01:00 +11°C° 0 mm 3 m/S 766 mmHg 66%
    02:00 +11°C° 0 mm 3 m/S 766 mmHg 65%
    03:00 +12°C° 0 mm 2 m/S 766 mmHg 64%
    04:00 +10°C° 0 mm 2 m/S 765 mmHg 63%
    05:00 +10°C° 0 mm 2 m/S 766 mmHg 63%
    06:00 +10°C° 0 mm 2 m/S 766 mmHg 64%
    07:00 +10°C° 0 mm 2 m/S 766 mmHg 64%
    08:00 +14°C° 0 mm 2 m/S 766 mmHg 57%
    09:00 +17°C° 0 mm 2 m/S 765 mmHg 49%
    10:00 +20°C° 0 mm 2 m/S 765 mmHg 42%
    11:00 +21°C° 0 mm 2 m/S 765 mmHg 38%
    12:00 +24°C° 0 mm 2 m/S 764 mmHg 34%
    13:00 +26°C° 0 mm 2 m/S 763 mmHg 29%
    14:00 +25°C° 0 mm 2 m/S 763 mmHg 32%
    15:00 +25°C° 0 mm 3 m/S 763 mmHg 35%
    16:00 +24°C° 0 mm 3 m/S 762 mmHg 38%
    17:00 +21°C° 0 mm 4 m/S 763 mmHg 44%
    18:00 +19°C° 0 mm 4 m/S 763 mmHg 51%
    19:00 +17°C° 0 mm 4 m/S 763 mmHg 57%
    20:00 +17°C° 0 mm 4 m/S 763 mmHg 58%
    21:00 +15°C° 0 mm 4 m/S 763 mmHg 59%
    22:00 +15°C° 0 mm 4 m/S 763 mmHg 60%
    23:00 +15°C° 0,2 mm 4 m/S 763 mmHg 65%

    30 Mai, Mittwoch

    Zeit Temperatur Niederschläge Wind Luftdruck Luftfeuchtigkeit
    00:00 +14°C° 0,2 mm 4 m/S 763 mmHg 70%
    01:00 +14°C° 0,2 mm 4 m/S 762 mmHg 74%
    02:00 +14°C° 0,7 mm 4 m/S 762 mmHg 79%
    03:00 +14°C° 0,7 mm 3 m/S 762 mmHg 84%
    04:00 +14°C° 0,7 mm 3 m/S 762 mmHg 89%
    05:00 +13°C° 0,8 mm 3 m/S 762 mmHg 90%
    06:00 +13°C° 0,8 mm 3 m/S 763 mmHg 92%
    07:00 +13°C° 0,8 mm 3 m/S 763 mmHg 93%
    08:00 +13°C° 0 mm 4 m/S 764 mmHg 82%
    09:00 +14°C° 0 mm 5 m/S 764 mmHg 70%
    10:00 +15°C° 0 mm 6 m/S 764 mmHg 59%
    11:00 +16°C° 0 mm 6 m/S 764 mmHg 49%
    12:00 +17°C° 0 mm 6 m/S 764 mmHg 39%
    13:00 +19°C° 0 mm 6 m/S 763 mmHg 29%
    14:00 +17°C° 0 mm 6 m/S 763 mmHg 31%
    15:00 +16°C° 0 mm 6 m/S 764 mmHg 32%
    16:00 +15°C° 0 mm 6 m/S 764 mmHg 33%
    17:00 +14°C° 0,4 mm 6 m/S 765 mmHg 40%
    18:00 +12°C° 0,4 mm 7 m/S 765 mmHg 48%
    19:00 +10°C° 0,4 mm 7 m/S 766 mmHg 56%
    20:00 +10°C° 0,5 mm 8 m/S 766 mmHg 58%
    21:00 +10°C° 0,5 mm 8 m/S 767 mmHg 60%
    22:00 +10°C° 0,5 mm 9 m/S 767 mmHg 62%
    23:00 +10°C° 0,7 mm 9 m/S 767 mmHg 63%
    Mehr zeigen